Bogalusa, LA

12:40 AM CDT on May 30, 2017 (GMT -0500)
Carr Memorial

Weather History for KBXA - November, 2012

Change the Weather History Date:

Tuesday, November 20, 2012

  Actual Average Record
Temperature  
Mean Temperature 58 °F -  
Max Temperature 71 °F 69 °F 75 °F (2015)
Min Temperature 44 °F 47 °F 29 °F (2016)
Degree Days  
Heating Degree Days 8    
Growing Degree Days 8 (Base 50)    
Moisture  
Dew Point 46 °F    
Average Humidity 77    
Maximum Humidity 100    
Minimum Humidity 27    
Precipitation  
Precipitation 0.00 in - - ()
Sea Level Pressure  
Sea Level Pressure 30.19 in    
Wind  
Wind Speed 1 mph ()    
Max Wind Speed 12 mph    
Max Gust Speed 16 mph    
Visibility 9.3 miles    
Events      
Averages and records for this station are not official NWS values.
T = Trace of Precipitation, MM = Missing Value Source: Averaged Metar Reports

Daily Weather History Graph

Daily Weather History Graph

Search for Another Location

Airport or City:

Trip Planner

Search our weather history database for the weather conditions in past years. The results will help you decide how hot, cold, wet, or windy it might be!

Date:

Astronomy

Nov. 20, 2012 Rise Set
Actual Time 6:30 AM CST 4:59 PM CST
Civil Twilight 6:04 AM CST 5:25 PM CST
Nautical Twilight 5:35 AM CST 5:54 PM CST
Astronomical Twilight 5:06 AM CST 6:23 PM CST
Moon 12:18 PM CST (11/20) No Moon Set
Length of Visible Light 11h 20m
Length of Day
10h 28m
First Quarter, 51% of the Moon is Illuminated
Nov 20
First Quarter
Nov 28
Full
Dec 6
Last Quarter
Dec 13
New
Dec 19
First Quarter

Hourly Weather History & Observations

Time (CST) Temp. Dew Point Humidity Pressure Visibility Wind Dir Wind Speed Gust Speed Precip Events Conditions
12:15 AM 46.2 °F 46.2 °F 100% 30.20 in 10.0 mi Calm Calm - N/A   Unknown
12:35 AM 47.1 °F 47.1 °F 100% 30.20 in 10.0 mi Calm Calm - N/A   Unknown
12:55 AM 47.3 °F 47.3 °F 100% 30.20 in 10.0 mi Calm Calm - N/A   Unknown
1:15 AM 47.5 °F 47.5 °F 100% 30.20 in 10.0 mi Calm Calm - N/A   Unknown
1:55 AM 46.8 °F 46.8 °F 100% 30.19 in 10.0 mi Calm Calm - N/A   Unknown
2:15 AM 46.6 °F 46.6 °F 100% 30.19 in 10.0 mi Calm Calm - N/A   Unknown
2:35 AM 46.4 °F 46.4 °F 100% 30.18 in 10.0 mi Calm Calm - N/A   Unknown
6:15 AM 46.2 °F 46.2 °F 100% 30.21 in 1.8 mi Calm Calm - N/A   Mist
6:35 AM 45.5 °F 45.5 °F 100% 30.21 in 7.0 mi Calm Calm - N/A   Unknown
6:55 AM 44.4 °F 44.4 °F 100% 30.22 in 4.0 mi Calm Calm - N/A   Mist
7:15 AM 45.1 °F 45.1 °F 100% 30.22 in 5.0 mi Calm Calm - N/A   Mist
7:35 AM 48.2 °F 48.2 °F 100% 30.22 in 10.0 mi Calm Calm - N/A   Unknown
7:55 AM 50.5 °F 50.4 °F 99% 30.23 in 10.0 mi Calm Calm - N/A   Unknown
8:15 AM 52.5 °F 49.3 °F 89% 30.23 in 10.0 mi Calm Calm - N/A   Unknown
8:35 AM 54.5 °F 47.1 °F 76% 30.23 in 10.0 mi Calm Calm - N/A   Unknown
8:55 AM 56.8 °F 48.2 °F 73% 30.23 in 10.0 mi Calm Calm - N/A   Unknown
9:15 AM 58.5 °F 47.7 °F 67% 30.24 in 10.0 mi Calm Calm - N/A   Unknown
9:35 AM 59.2 °F 47.8 °F 66% 30.23 in 10.0 mi Calm Calm - N/A   Unknown
9:55 AM 60.8 °F 47.5 °F 62% 30.24 in 10.0 mi Calm Calm - N/A   Unknown
10:15 AM 62.8 °F 48.7 °F 60% 30.23 in 10.0 mi NNE 3.5 mph - N/A   Unknown
10:35 AM 65.1 °F 47.3 °F 52% 30.23 in 10.0 mi Calm Calm - N/A   Unknown
10:55 AM 66.0 °F 44.1 °F 45% 30.22 in 10.0 mi North 3.5 mph - N/A   Unknown
11:15 AM 68.4 °F 43.2 °F 40% 30.21 in 10.0 mi North 5.8 mph - N/A   Unknown
11:35 AM 68.7 °F 43.3 °F 40% 30.20 in 10.0 mi NNW 6.9 mph - N/A   Clear
11:55 AM 69.6 °F 41.7 °F 36% 30.19 in 10.0 mi North 9.2 mph - N/A   Clear
12:15 PM 70.2 °F 43.2 °F 38% 30.18 in 10.0 mi North 5.8 mph 16.1 mph N/A   Clear
12:35 PM 70.5 °F 39.9 °F 33% 30.17 in 10.0 mi NNE 10.4 mph - N/A   Clear
12:55 PM 70.2 °F 39.9 °F 33% 30.16 in 10.0 mi NNW 6.9 mph - N/A   Clear
1:15 PM 70.7 °F 38.8 °F 31% 30.16 in 10.0 mi North 5.8 mph - N/A   Scattered Clouds
1:35 PM 70.3 °F 39.6 °F 33% 30.15 in 10.0 mi North 8.1 mph - N/A   Mostly Cloudy
1:55 PM 71.1 °F 37.6 °F 29% 30.14 in 10.0 mi North 8.1 mph - N/A   Scattered Clouds
2:15 PM 71.4 °F 39.2 °F 31% 30.14 in 10.0 mi NNE 11.5 mph - N/A   Clear
2:35 PM 70.7 °F 37.4 °F 30% 30.13 in 10.0 mi NNW 5.8 mph - N/A   Clear
3:15 PM 70.5 °F 34.9 °F 27% 30.14 in 7.0 mi NNE 4.6 mph - N/A   Scattered Clouds
3:35 PM 69.3 °F 37.8 °F 32% 30.14 in 10.0 mi North 3.5 mph - N/A   Mostly Cloudy
3:55 PM 67.1 °F 39.6 °F 36% 30.14 in 10.0 mi North 3.5 mph - N/A   Scattered Clouds
4:15 PM 66.2 °F 46.2 °F 49% 30.15 in 10.0 mi Calm Calm - N/A   Clear
4:35 PM 65.5 °F 47.5 °F 52% 30.14 in 10.0 mi Calm Calm - N/A   Clear
4:55 PM 59.7 °F 51.8 °F 75% 30.15 in 10.0 mi Calm Calm - N/A   Clear
5:15 PM 57.4 °F 52.0 °F 82% 30.14 in 10.0 mi Calm Calm - N/A   Clear
5:35 PM 56.8 °F 51.3 °F 82% 30.14 in 10.0 mi Calm Calm - N/A   Scattered Clouds
5:55 PM 52.9 °F 52.3 °F 98% 30.15 in 10.0 mi Calm Calm - N/A   Unknown
6:15 PM 53.8 °F 53.8 °F 100% 30.15 in 10.0 mi Calm Calm - N/A   Unknown
6:35 PM 52.7 °F 52.7 °F 100% 30.16 in 10.0 mi Calm Calm - N/A   Clear
6:55 PM 52.0 °F 52.0 °F 100% 30.16 in 10.0 mi Calm Calm - N/A   Unknown
7:15 PM 50.9 °F 50.9 °F 100% 30.16 in 10.0 mi Calm Calm - N/A   Unknown
7:35 PM 51.1 °F 51.1 °F 100% 30.17 in 10.0 mi Calm Calm - N/A   Unknown
7:55 PM 50.4 °F 50.4 °F 100% 30.18 in 10.0 mi Calm Calm - N/A   Unknown
8:15 PM 49.5 °F 49.5 °F 100% 30.18 in 10.0 mi Calm Calm - N/A   Unknown
8:35 PM 48.4 °F 48.4 °F 100% 30.18 in 7.0 mi Calm Calm - N/A   Unknown
8:55 PM 48.4 °F 48.4 °F 100% 30.19 in 10.0 mi Calm Calm - N/A   Unknown
9:15 PM 48.4 °F 48.4 °F 100% 30.19 in 10.0 mi Calm Calm - N/A   Unknown
9:35 PM 47.1 °F 47.1 °F 100% 30.19 in 7.0 mi Calm Calm - N/A   Unknown
9:55 PM 47.3 °F 47.3 °F 100% 30.19 in 10.0 mi Calm Calm - N/A   Unknown
10:15 PM 46.4 °F 46.4 °F 100% 30.19 in 7.0 mi Calm Calm - N/A   Unknown
10:35 PM 44.8 °F 44.8 °F 100% 30.19 in 7.0 mi Calm Calm - N/A   Unknown
10:55 PM 45.3 °F 45.3 °F 100% 30.19 in 7.0 mi Calm Calm - N/A   Unknown
11:15 PM 45.0 °F 45.0 °F 100% 30.19 in 10.0 mi Calm Calm - N/A   Unknown
11:35 PM 44.6 °F 44.6 °F 100% 30.19 in 10.0 mi Calm Calm - N/A   Unknown
11:55 PM 44.8 °F 44.8 °F 100% 30.19 in 10.0 mi Calm Calm - N/A   Unknown